Regional Weather Roundup
Issued by NWS

Home | Current Version | Previous Version | Text Only | Print | Product List | Glossary Off
Versions: 1 2 3 4 5 6 7 8 9 10 11 12 13 14 15 16 17 18 19 20 21 22 23 24 25 26 27 28 29 30 31 32 33 34 35 36 37 38 39 40 41 42 43 44 45 46 47 48 49 50

921
ASUS43 KDTX 290510
RWRMI
MICHIGAN HOURLY REGIONAL WEATHER ROUNDUP
NATIONAL WEATHER SERVICE DETROIT/PONTIAC MI
100 AM EDT FRI JUL 29 2016

NOTE: "FAIR" INDICATES FEW OR NO CLOUDS BELOW 12,000 FEET WITH NO
SIGNIFICANT WEATHER AND/OR OBSTRUCTION TO VISIBILITY.

MIZ047>049-052>055-059>063-066>070-074>076-081>083-290600-
SOUTHEAST LOWER MICHIGAN

CITY           SKY/WX    TMP DP  RH WIND       PRES   REMARKS
ADRIAN         PTCLDY    67  66  97 NE6       29.94S
ALMA           CLOUDY    69  66  90 N8        29.98S
ANN ARBOR      CLOUDY    72  61  68 NE7       29.94F
BAD AXE        CLOUDY    65  62  90 N3        29.98S
CARO           PTCLDY    65  63  91 CALM      29.97S
DETROIT CITY   PTCLDY    72  59  63 N6        29.94R
DETROIT        CLOUDY    73  54  51 NE6       29.94S
FLINT          CLOUDY    73  60  63 NE8       29.96S
GROSSE ILE     PTCLDY    73  63  70 N5        29.92S
HILLSDALE      CLOUDY    68  63  83 CALM      29.95S
HOWELL         CLOUDY    70  61  73 CALM      29.97R

CITY           SKY/WX    TMP DP  RH WIND       PRES   REMARKS
JACKSON        CLOUDY    71  67  87 NE5       29.95R
LAMBERTVILLE   CLOUDY    74  65  75 CALM      29.93F
LANSING        CLOUDY    68  62  81 NE5       29.97R
LAPEER         FAIR      66  61  83 CALM      29.97S
MASON          CLOUDY    69  64  84 NE5       29.96S
MONROE         PTCLDY    69  63  80 N13       29.92F
MT. CLEMENS    MOCLDY    68  61  78 NW5       29.92S
PONTIAC        CLOUDY    71  58  63 NE5       29.95S
PORT HOPE        N/A     72  64  76 NE13      29.97R
PORT HURON     MOCLDY    66  64  94 CALM      29.94S
TRI CITIES     CLOUDY    69  66  90 N3        29.98R
MIDLAND        FAIR      68  62  79 N3        29.98R
TROY           CLOUDY    73  54  51 N6        29.96F
SAGINAW HB     MOCLDY    66  63  88 NE3       29.97R
$$
MIZ043>046-050>051-056>058-064>065-071>073-077>080-290600-
SOUTHWEST LOWER MICHIGAN

CITY           SKY/WX    TMP DP  RH WIND       PRES   REMARKS
BATTLE CREEK   CLOUDY    68  67  96 NE8       29.95S
BENTON HARBOR  CLEAR     69  63  81 CALM      29.93R
BIG RAPIDS     CLOUDY    68  68 100 E5        29.97S
COLDWATER      PTCLDY    71  67  89 NE6       29.94S
FREMONT        CLOUDY    68  68 100 E3        29.97R
HOLLAND        CLOUDY    70  65  84 E3        29.96R
GRAND RAPIDS   PTCLDY    69  62  78 E7        29.96R
IONIA          FAIR      69  59  70 NE7       29.95F
KALAMAZOO      CLOUDY    71  66  84 VRB5      29.93F
LUDINGTON      CLOUDY    69  63  80 NW3       29.97R
MARSHALL       CLOUDY    72  65  80 NE3       29.94S
MOUNT PLEASANT DRIZZLE   69  62  79 NE5       29.98S
MUSKEGON       CLOUDY    69  65  86 NE7       29.95S
SOUTH HAVEN    CLEAR     67  66  96 CALM      29.94R
$$
MIZ016>042-290600-
NORTHERN LOWER MICHIGAN

CITY           SKY/WX    TMP DP  RH WIND       PRES   REMARKS
ALPENA         MOCLDY    65  59  81 N8        30.01R
BEAVER ISLAND  CLOUDY    62  57  84 NE5       30.03S
BELLAIRE       CLOUDY    66  56  70 CALM      30.00S
CADILLAC       CLOUDY    68  61  76 E6        30.00S
CHARLEVOIX     CLOUDY    68  57  67 NE5       30.05R
FRANKFORT      CLOUDY    69  60  72 NE7       29.99S
GAYLORD        MOCLDY    65  54  67 NE8       30.03S
GRAYLING       MOCLDY    65  58  77 CALM      30.02S
HARBOR SPRINGS CLOUDY    64  55  73 CALM      30.01S
HOUGHTON LAKE  CLOUDY    67  57  70 CALM      30.02R
MANISTEE       RAIN      68  63  84 N9        29.98R
OSCODA         CLOUDY    63  56  80 CALM      29.98F
PELLSTON       CLOUDY    59  54  83 NW3       30.02S
ROGERS CITY    CLOUDY    67  59  77 W5        30.03R
TRAVERSE CITY  CLOUDY    73  58  59 NE8       29.98R
$$
MIZ007>008-015-290600-
EASTERN UPPER MICHIGAN

CITY           SKY/WX    TMP DP  RH WIND       PRES   REMARKS
KINROSS        MOCLDY    61  59  93 N6        30.05R
MACKINAC ISLAN PTCLDY    62  56  82 N9        30.02F
NEWBERRY       PTCLDY    57  55  94 CALM      30.04S
S. S. MARIE    MOCLDY    66  54  65 NE7       30.04R
MUNISING         N/A     62  59  90 NW8       30.05S
$$
MIZ004>006-011>014-085-290600-
CENTRAL UPPER MICHIGAN

CITY           SKY/WX    TMP DP  RH WIND       PRES   REMARKS
MANISTIQUE     PTCLDY    55  55 100 N7        30.03S
ESCANABA       CLEAR     57  54  88 N6        30.03S
MENOMINEE      CLOUDY   N/A N/A N/A N5        30.05R
SAWYER-GWINN   CLEAR     53  51  92 N5        30.08R
$$
MIZ001>003-009>011-084-290600-
WESTERN UPPER MICHIGAN

CITY           SKY/WX    TMP DP  RH WIND       PRES   REMARKS
IRON MOUNTAIN  CLOUDY    56  50  80 NW3       30.06S
HOUGHTON       CLEAR     51  47  86 NW5       30.09S
COPPER HARBOR    N/A     56  55  97 NW3       30.08S
IRONWOOD       CLEAR     48  48 100 NE3       30.09S VSB 1
$$

ABBREVIATIONS USED IN REMARKS
   TC - TEMPERATURE IN CELSIUS
  WCI - WIND CHILL INDEX
   HX - HEAT INDEX
  VSB - VISIBILITY





USA.gov is the U.S. government's official web portal to all federal, state and local government web resources and services.